Tracking 33744 objects as of 12-Apr-2026
HD Live streaming from Space Station
objects crossing your sky now

SL-12 R/B(AUX MOTOR)

Track SL-12 R/B(AUX MOTOR) now!
10-day predictions


NORAD ID: 33385
Int'l Code: 2008-046H
Perigee: 861.0 km
Apogee: 18,752.9 km
Inclination: 65.2 °
Period: 341.3 minutes
Semi major axis: 16177 km
RCS: 0.543 m2 (medium)
Launch date: September 25, 2008
Source: Commonwealth of Independent States (former USSR) (CIS)
Launch site: TYURATAM MISSILE AND SPACE COMPLEX (TTMTR)

Note: This is a ROCKET BODY
Your satellite tracking list
Your tracking list is empty




NASA's NSSDC Master Catalog

Two Line Element Set (TLE):
1 33385U 08046H   26097.97970077  .00000027  00000-0  18745-3 0  9997
2 33385  65.1946  80.0041 5529727 274.0834  27.8086  4.21908236182527
Source of the keplerian elements: AFSPC